Location: Gro� Glienicke
(52.4675°N, 13.1079°E)
Time: 17:59:20
(UTC+00:00)

Cosmos 44 - Pass Details

Date: 06 July 2020
Orbit: 586 x 776 km, 65.1° (Epoch: 13 August)

Event Time Altitude Azimuth Distance (km) Brightness Sun altitude
Exits shadow 22:40:54 22° 201° (SSW) 1,322 4.2 -14.7°
Maximum altitude 22:43:34 60° 127° (SE) 690 3.0 -14.7°
Drops below altitude 10° 22:47:58 10° 48° (NE) 1,990 6.2 -14.8°
Sets 22:50:19 0° 45° (NE) 2,927 7.1 -14.8°
